Simultaneous Nadir Overpasses (SNOs) Predictions

Prediction of SNOs near US between AQUA and NPP Satellite Orbit:

Table of predicted SNOs near US for the next 10.0 days since TLE Epoch: 5/18/2013
Index Date (AQUA) Time (AQUA) AQUA Lat,Lon Date (NPP) Time (NPP) NPP Lat,Lon Distance(km) Time Diff (sec)
1 05/18/2013 18:17:31 50.00, -80.21 05/18/2013 18:10:08 49.71, -81.91 126.00 443
2 05/18/2013 19:56:24 49.99,-104.93 05/18/2013 19:51:36 49.60,-107.23 171.21 288
3 05/18/2013 21:31:33 36.63,-125.00 05/18/2013 21:29:13 36.11,-127.68 247.33 140
4 05/21/2013 09:25:07 20.05,-114.28 05/21/2013 09:16:48 18.53,-115.22 195.71 499
5 05/24/2013 06:31:41 43.80, -66.03 05/24/2013 06:30:54 44.18, -68.12 172.87 47
6 05/24/2013 08:08:51 49.92, -88.41 05/24/2013 08:10:36 50.40, -90.94 187.63 105
7 05/24/2013 09:47:44
